Epoch 2024 Oct. 17.0 TT = JDT 2460600.5 T 2025 Oct. 18.84626 TT Bell q 4.3982675 (2000.0) P Q z -0.0002285 Peri. 91.24801 -0.00450451 -0.79883974 +/-0.0000253 Node 323.01074 -0.36986536 +0.56020569 e 1.0010051 Incl. 88.77189 +0.92907444 +0.21914530 >From 25 observations 2024 June 6-Sept. 3, mean residual 0".2.
m1 = 10.5 + 5 logΔ + 10.0 log r